EDW189 LSZH-LGSA

Flight info

Callsign EDW189
Flight time 2h 21m
Altitude 29000
Route GERSA Z50 RESIA/N0402F190 P131 ADOSA L612 NOSTO/N0474F290 UL612 TRL UJ65 SOKRI
Aircraft A320/M-SDE2E3FGHIJ1RWXY/LB1

Departure

Time 2026-05-01 11:55
Airport Zürich Airport (LSZH)

Arrival

Time 2026-05-01 14:16
Airport Chania International Airport (LGSA)
Time Latitude Longitude Altitude Speed Heading
2026-05-01 11:07 47.45418 8.55872 1415 ft 0 kts 186°
2026-05-01 11:45 47.45423 8.55873 1407 ft 3 kts 187°
2026-05-01 11:45 47.45445 8.55879 1408 ft 3 kts 192°
2026-05-01 11:46 47.45466 8.55881 1407 ft 3 kts 156°
2026-05-01 11:46 47.45483 8.55867 1411 ft 3 kts 139°
2026-05-01 11:46 47.45497 8.55842 1413 ft 3 kts 114°
2026-05-01 11:46 47.45504 8.55811 1411 ft 3 kts 98°
2026-05-01 11:47 47.45506 8.55779 1413 ft 2 kts 96°
2026-05-01 11:47 47.45507 8.55776 1413 ft 0 kts 96°
2026-05-01 11:50 47.45511 8.55808 1410 ft 7 kts 66°
2026-05-01 11:50 47.45569 8.55845 1408 ft 11 kts
2026-05-01 11:51 47.45634 8.55892 1411 ft 14 kts 76°
2026-05-01 11:51 47.45624 8.56056 1410 ft 17 kts 97°
2026-05-01 11:51 47.45615 8.56171 1411 ft 17 kts 95°
2026-05-01 11:51 47.45604 8.56339 1413 ft 16 kts 96°
2026-05-01 11:52 47.45592 8.56501 1415 ft 16 kts 96°
2026-05-01 11:52 47.45581 8.56656 1418 ft 15 kts 96°
2026-05-01 11:52 47.45571 8.56802 1420 ft 14 kts 96°
2026-05-01 11:52 47.45565 8.56893 1420 ft 8 kts 96°
2026-05-01 11:53 47.45564 8.56966 1421 ft 6 kts 77°
2026-05-01 11:53 47.45573 8.56989 1421 ft 0 kts 54°
2026-05-01 11:54 47.45596 8.57013 1423 ft 6 kts 25°
2026-05-01 11:54 47.45650 8.57023 1425 ft 9 kts 349°
2026-05-01 11:54 47.45667 8.56957 1424 ft 7 kts 274°
2026-05-01 11:54 47.45676 8.56829 1421 ft 33 kts 276°
2026-05-01 11:55 47.45728 8.56083 1412 ft 109 kts 276°
2026-05-01 11:55 47.45832 8.54670 1402 ft 164 kts 274°
2026-05-01 11:55 47.45961 8.52999 2047 ft 160 kts 278°
2026-05-01 11:55 47.46080 8.51357 2801 ft 160 kts 278°
2026-05-01 11:56 47.46201 8.49641 3050 ft 181 kts 276°
2026-05-01 11:56 47.46201 8.47699 3383 ft 197 kts 253°
2026-05-01 11:56 47.45366 8.46032 3647 ft 215 kts 217°
2026-05-01 11:56 47.44123 8.44660 4007 ft 233 kts 219°
2026-05-01 11:57 47.42902 8.43019 4701 ft 231 kts 229°
2026-05-01 11:57 47.41896 8.41174 5454 ft 234 kts 235°
2026-05-01 11:57 47.40956 8.39224 6143 ft 237 kts 235°
2026-05-01 11:57 47.39921 8.37260 6652 ft 253 kts 221°
2026-05-01 11:58 47.38291 8.36097 7028 ft 272 kts 187°
2026-05-01 11:58 47.36423 8.36502 7713 ft 278 kts 156°
2026-05-01 11:58 47.32936 8.39075 9406 ft 280 kts 152°
2026-05-01 11:59 47.31198 8.40402 10217 ft 283 kts 152°
2026-05-01 11:59 47.29419 8.41750 10684 ft 297 kts 152°
2026-05-01 11:59 47.27505 8.43188 10899 ft 320 kts 152°
2026-05-01 12:00 47.23414 8.46228 12057 ft 335 kts 152°
2026-05-01 12:00 47.21325 8.47773 12753 ft 338 kts 152°
2026-05-01 12:00 47.17049 8.50798 14134 ft 345 kts 159°
2026-05-01 12:01 47.14706 8.51652 14729 ft 351 kts 171°
2026-05-01 12:01 47.12266 8.52013 15279 ft 354 kts 173°
2026-05-01 12:01 47.09798 8.52361 15852 ft 358 kts 172°
2026-05-01 12:01 47.07355 8.53066 16390 ft 360 kts 160°
2026-05-01 12:02 47.05110 8.54582 16974 ft 361 kts 146°
2026-05-01 12:02 47.03142 8.56854 17565 ft 362 kts 133°
2026-05-01 12:02 47.01585 8.59757 18126 ft 364 kts 120°
2026-05-01 12:02 47.00381 8.63030 18678 ft 367 kts 117°
2026-05-01 12:03 46.99183 8.66353 19174 ft 371 kts 116°
2026-05-01 12:03 46.97969 8.69707 19655 ft 374 kts 116°
2026-05-01 12:03 46.96740 8.73090 20147 ft 378 kts 116°
2026-05-01 12:03 46.95500 8.76497 20651 ft 381 kts 116°
2026-05-01 12:04 46.94246 8.79945 21129 ft 385 kts 116°
2026-05-01 12:04 46.92981 8.83420 21632 ft 389 kts 116°
2026-05-01 12:04 46.91700 8.86925 22064 ft 393 kts 116°
2026-05-01 12:04 46.90400 8.90469 22509 ft 397 kts 116°
2026-05-01 12:05 46.89094 8.94033 22991 ft 400 kts 116°
2026-05-01 12:05 46.86441 9.01259 23887 ft 407 kts 116°
2026-05-01 12:05 46.85096 9.04910 24277 ft 409 kts 116°
2026-05-01 12:06 46.83742 9.08586 24659 ft 412 kts 116°
2026-05-01 12:06 46.82383 9.12274 25058 ft 414 kts 116°
2026-05-01 12:06 46.81017 9.15981 25443 ft 416 kts 115°
2026-05-01 12:06 46.79642 9.19713 25805 ft 419 kts 116°
2026-05-01 12:07 46.78258 9.23464 26164 ft 420 kts 116°
2026-05-01 12:07 46.76886 9.27170 26519 ft 422 kts 116°
2026-05-01 12:07 46.75483 9.30948 26880 ft 424 kts 116°
2026-05-01 12:07 46.74071 9.34740 27229 ft 426 kts 116°
2026-05-01 12:08 46.72650 9.38545 27579 ft 428 kts 115°
2026-05-01 12:08 46.71222 9.42366 27914 ft 430 kts 115°
2026-05-01 12:08 46.69791 9.46201 28244 ft 432 kts 115°
2026-05-01 12:08 46.68352 9.50057 28589 ft 434 kts 115°
2026-05-01 12:09 46.66902 9.53925 28917 ft 436 kts 115°
2026-05-01 12:09 46.65443 9.57815 29236 ft 438 kts 115°
2026-05-01 12:09 46.63982 9.61709 29566 ft 440 kts 115°
2026-05-01 12:09 46.62510 9.65628 29865 ft 442 kts 115°
2026-05-01 12:10 46.61028 9.69561 30160 ft 444 kts 115°
2026-05-01 12:10 46.58054 9.77454 30680 ft 447 kts 115°
2026-05-01 12:10 46.56555 9.81424 30925 ft 448 kts 115°
2026-05-01 12:11 46.53535 9.89377 31435 ft 449 kts 115°
2026-05-01 12:11 46.52020 9.93341 31760 ft 448 kts 115°
2026-05-01 12:11 46.50512 9.97291 32045 ft 447 kts 115°
2026-05-01 12:12 46.48970 10.01203 32355 ft 448 kts 120°
2026-05-01 12:12 46.47082 10.04818 32652 ft 451 kts 129°
2026-05-01 12:12 46.44818 10.07977 32913 ft 454 kts 137°
2026-05-01 12:12 46.42375 10.10886 33226 ft 454 kts 136°
2026-05-01 12:13 46.39940 10.13791 33487 ft 453 kts 136°
2026-05-01 12:13 46.37510 10.16699 33788 ft 453 kts 136°
2026-05-01 12:13 46.35091 10.19603 34091 ft 452 kts 136°
2026-05-01 12:13 46.32674 10.22505 34351 ft 451 kts 136°
2026-05-01 12:14 46.30257 10.25399 34600 ft 451 kts 136°
2026-05-01 12:14 46.27835 10.28291 34840 ft 451 kts 136°
2026-05-01 12:14 46.25412 10.31176 35059 ft 452 kts 137°
2026-05-01 12:14 46.22985 10.34056 35248 ft 452 kts 137°
2026-05-01 12:15 46.20556 10.36930 35469 ft 451 kts 137°
2026-05-01 12:15 46.18128 10.39804 35634 ft 451 kts 137°
2026-05-01 12:15 46.15704 10.42679 35827 ft 451 kts 136°
2026-05-01 12:15 46.13281 10.45553 35994 ft 452 kts 136°
2026-05-01 12:16 46.10851 10.48431 36183 ft 452 kts 137°
2026-05-01 12:16 46.08419 10.51301 36346 ft 452 kts 137°
2026-05-01 12:16 46.05982 10.54169 36518 ft 453 kts 137°
2026-05-01 12:16 46.03541 10.57038 36687 ft 452 kts 137°
2026-05-01 12:17 46.01108 10.59904 36836 ft 453 kts 137°
2026-05-01 12:17 45.98671 10.62774 36992 ft 453 kts 137°
2026-05-01 12:17 45.96232 10.65638 37132 ft 453 kts 137°
2026-05-01 12:17 45.93790 10.68498 37301 ft 452 kts 138°
2026-05-01 12:18 45.88909 10.74200 37366 ft 452 kts 137°
2026-05-01 12:18 45.84055 10.79861 37368 ft 453 kts 137°
2026-05-01 12:19 45.79152 10.85570 37375 ft 454 kts 137°
2026-05-01 12:19 45.74247 10.91286 37369 ft 454 kts 137°
2026-05-01 12:20 45.69338 10.96981 37372 ft 454 kts 137°
2026-05-01 12:20 45.64625 11.02940 37393 ft 449 kts 127°
2026-05-01 12:21 45.61077 11.10166 37378 ft 443 kts 118°
2026-05-01 12:21 45.57739 11.17581 37366 ft 444 kts 118°
2026-05-01 12:22 45.54395 11.25003 37362 ft 445 kts 118°
2026-05-01 12:22 45.51052 11.32417 37358 ft 445 kts 118°
2026-05-01 12:23 45.47697 11.39841 37363 ft 445 kts 118°
2026-05-01 12:23 45.44333 11.47250 37369 ft 446 kts 118°
2026-05-01 12:24 45.40967 11.54659 37374 ft 446 kts 118°
2026-05-01 12:24 45.37596 11.62054 37376 ft 446 kts 118°
2026-05-01 12:25 45.32549 11.73099 37399 ft 447 kts 118°
2026-05-01 12:26 45.29155 11.80502 37392 ft 447 kts 118°
2026-05-01 12:26 45.24057 11.91583 37385 ft 447 kts 118°
2026-05-01 12:27 45.18955 12.02659 37415 ft 447 kts 118°
2026-05-01 12:28 45.13833 12.13696 37394 ft 447 kts 118°
2026-05-01 12:29 45.08641 12.24661 37379 ft 450 kts 124°
2026-05-01 12:29 45.01210 12.33008 37407 ft 463 kts 146°
2026-05-01 12:30 44.92845 12.39873 37387 ft 464 kts 145°
2026-05-01 12:31 44.87261 12.44453 37373 ft 464 kts 146°
2026-05-01 12:31 44.81707 12.48993 37367 ft 465 kts 146°
2026-05-01 12:32 44.76107 12.53563 37365 ft 465 kts 146°
2026-05-01 12:32 44.68620 12.59670 37402 ft 466 kts 145°
2026-05-01 12:33 44.63356 12.63953 37381 ft 466 kts 145°
2026-05-01 12:33 44.59447 12.67129 37377 ft 467 kts 145°
2026-05-01 12:34 44.55228 12.70539 37378 ft 467 kts 145°
2026-05-01 12:34 44.50226 12.74574 37375 ft 467 kts 145°
2026-05-01 12:35 44.44812 12.78922 37366 ft 468 kts 146°
2026-05-01 12:35 44.39364 12.83279 37401 ft 468 kts 145°
2026-05-01 12:36 44.33995 12.87571 37387 ft 468 kts 145°
2026-05-01 12:36 44.28416 12.92040 37381 ft 468 kts 145°
2026-05-01 12:37 44.22766 12.96561 37377 ft 468 kts 145°
2026-05-01 12:37 44.17168 13.01025 37369 ft 468 kts 145°
2026-05-01 12:38 44.11514 13.05543 37368 ft 469 kts 145°
2026-05-01 12:38 44.05846 13.10055 37362 ft 469 kts 146°
2026-05-01 12:39 44.00173 13.14537 37383 ft 469 kts 146°
2026-05-01 12:39 43.94508 13.18992 37358 ft 467 kts 146°
2026-05-01 12:40 43.88855 13.23450 37359 ft 467 kts 146°
2026-05-01 12:40 43.83208 13.27903 37367 ft 467 kts 146°
2026-05-01 12:41 43.77549 13.32345 37352 ft 468 kts 146°
2026-05-01 12:41 43.71874 13.36792 37351 ft 469 kts 146°
2026-05-01 12:42 43.66192 13.41230 37351 ft 469 kts 146°
2026-05-01 12:42 43.61470 13.44924 37375 ft 469 kts 143°
2026-05-01 12:43 43.56506 13.50546 37359 ft 457 kts 126°
2026-05-01 12:43 43.52383 13.57199 37319 ft 458 kts 124°
2026-05-01 12:44 43.48234 13.63869 37317 ft 459 kts 125°
2026-05-01 12:45 43.39919 13.77186 37324 ft 461 kts 125°
2026-05-01 12:45 43.35704 13.83913 37313 ft 462 kts 126°
2026-05-01 12:46 43.31504 13.90598 37345 ft 462 kts 127°
2026-05-01 12:46 43.27322 13.97236 37336 ft 463 kts 127°
2026-05-01 12:47 43.23073 14.03966 37324 ft 470 kts 127°
2026-05-01 12:47 43.18769 14.10787 37320 ft 474 kts 127°
2026-05-01 12:48 43.14447 14.17613 37318 ft 475 kts 127°
2026-05-01 12:48 43.10107 14.24445 37313 ft 475 kts 128°
2026-05-01 12:49 43.05765 14.31248 37308 ft 474 kts 128°
2026-05-01 12:49 43.01427 14.38037 37298 ft 474 kts 128°
2026-05-01 12:50 42.97090 14.44827 37299 ft 474 kts 128°
2026-05-01 12:50 42.92742 14.51611 37300 ft 475 kts 128°
2026-05-01 12:51 42.88384 14.58382 37310 ft 475 kts 128°
2026-05-01 12:52 42.81841 14.68510 37278 ft 478 kts 128°
2026-05-01 12:52 42.75247 14.78709 37295 ft 479 kts 128°
2026-05-01 12:53 42.68634 14.88903 37300 ft 479 kts 128°
2026-05-01 12:54 42.64217 14.95687 37319 ft 479 kts 129°
2026-05-01 12:54 42.57575 15.05846 37294 ft 480 kts 129°
2026-05-01 12:55 42.50918 15.16005 37293 ft 480 kts 129°
2026-05-01 12:56 42.46469 15.22769 37282 ft 481 kts 129°
2026-05-01 12:56 42.42022 15.29528 37305 ft 481 kts 130°
2026-05-01 12:57 42.37567 15.36277 37285 ft 481 kts 130°
2026-05-01 12:57 42.30873 15.46388 37275 ft 482 kts 130°
2026-05-01 12:58 42.26395 15.53119 37268 ft 482 kts 130°
2026-05-01 12:59 42.19677 15.63211 37264 ft 482 kts 130°
2026-05-01 12:59 42.12944 15.73287 37248 ft 483 kts 131°
2026-05-01 13:00 42.06210 15.83325 37237 ft 484 kts 131°
2026-05-01 13:01 41.99398 15.93455 37247 ft 485 kts 131°
2026-05-01 13:02 41.92629 16.03490 37259 ft 486 kts 131°
2026-05-01 13:07 41.43005 16.75929 37218 ft 476 kts 133°
2026-05-01 13:08 41.38502 16.82415 37219 ft 476 kts 133°
2026-05-01 13:08 41.34001 16.88893 37194 ft 477 kts 134°
2026-05-01 13:09 41.29493 16.95376 37194 ft 478 kts 134°
2026-05-01 13:09 41.24971 17.01845 37195 ft 478 kts 134°
2026-05-01 13:10 41.20440 17.08313 37201 ft 478 kts 134°
2026-05-01 13:10 41.15901 17.14787 37198 ft 479 kts 134°
2026-05-01 13:11 41.11356 17.21245 37193 ft 479 kts 135°
2026-05-01 13:11 41.06797 17.27709 37179 ft 480 kts 135°
2026-05-01 13:12 41.02233 17.34175 37174 ft 481 kts 135°
2026-05-01 13:12 40.97658 17.40640 37189 ft 482 kts 135°
2026-05-01 13:13 40.93097 17.47064 37178 ft 483 kts 135°
2026-05-01 13:13 40.88494 17.53543 37175 ft 484 kts 135°
2026-05-01 13:14 40.83879 17.60018 37178 ft 484 kts 135°
2026-05-01 13:14 40.79251 17.66499 37153 ft 486 kts 135°
2026-05-01 13:15 40.74611 17.72988 37163 ft 486 kts 135°
2026-05-01 13:15 40.69958 17.79471 37167 ft 487 kts 136°
2026-05-01 13:16 40.65298 17.85956 37180 ft 487 kts 136°
2026-05-01 13:16 40.60637 17.92439 37180 ft 487 kts 136°
2026-05-01 13:17 40.51300 18.05365 37147 ft 488 kts 136°
2026-05-01 13:18 40.44274 18.15050 37150 ft 488 kts 136°
2026-05-01 13:18 40.39579 18.21506 37157 ft 489 kts 136°
2026-05-01 13:19 40.34877 18.27948 37167 ft 489 kts 136°
2026-05-01 13:20 40.27817 18.37598 37143 ft 489 kts 137°
2026-05-01 13:20 40.23101 18.44037 37137 ft 490 kts 137°
2026-05-01 13:21 40.16023 18.53685 37115 ft 490 kts 137°
2026-05-01 13:21 40.11291 18.60113 37100 ft 491 kts 137°
2026-05-01 13:22 40.06552 18.66523 37101 ft 490 kts 137°
2026-05-01 13:22 40.01843 18.72896 37078 ft 490 kts 138°
2026-05-01 13:23 39.97136 18.79242 37071 ft 491 kts 138°
2026-05-01 13:23 39.92608 18.85329 37072 ft 492 kts 137°
2026-05-01 13:24 39.87967 18.91898 37075 ft 494 kts 135°
2026-05-01 13:25 39.81177 19.02015 37075 ft 495 kts 135°
2026-05-01 13:25 39.76619 19.08701 37083 ft 494 kts 135°
2026-05-01 13:26 39.72020 19.15344 37051 ft 494 kts 136°
2026-05-01 13:26 39.67413 19.21985 37055 ft 495 kts 136°
2026-05-01 13:27 39.62806 19.28641 37049 ft 496 kts 136°
2026-05-01 13:27 39.55896 19.38609 37053 ft 496 kts 136°
2026-05-01 13:28 39.48960 19.48559 37060 ft 496 kts 137°
2026-05-01 13:29 39.39682 19.61798 37026 ft 498 kts 137°
2026-05-01 13:31 39.25718 19.81685 37048 ft 500 kts 138°
2026-05-01 13:32 39.13969 19.98277 37020 ft 502 kts 138°
2026-05-01 13:33 39.02930 20.13830 37046 ft 504 kts 138°
2026-05-01 13:34 38.93470 20.27081 37048 ft 505 kts 138°
2026-05-01 13:35 38.86327 20.37044 37055 ft 505 kts 138°
2026-05-01 13:36 38.79191 20.46980 37050 ft 505 kts 139°
2026-05-01 13:36 38.72036 20.56893 37048 ft 505 kts 139°
2026-05-01 13:37 38.67254 20.63498 37052 ft 505 kts 139°
2026-05-01 13:37 38.62476 20.70091 37055 ft 505 kts 139°
2026-05-01 13:38 38.55318 20.79949 37020 ft 505 kts 140°
2026-05-01 13:39 38.50527 20.86516 37025 ft 505 kts 140°
2026-05-01 13:39 38.45724 20.93088 37034 ft 506 kts 140°
2026-05-01 13:40 38.40923 20.99652 37041 ft 506 kts 140°
2026-05-01 13:40 38.36116 21.06209 37046 ft 507 kts 140°
2026-05-01 13:41 38.31304 21.12770 37054 ft 507 kts 140°
2026-05-01 13:41 38.26503 21.19292 37029 ft 506 kts 140°
2026-05-01 13:42 38.21678 21.25826 37039 ft 506 kts 140°
2026-05-01 13:42 38.16859 21.32353 37059 ft 506 kts 140°
2026-05-01 13:43 38.12054 21.38822 37062 ft 506 kts 141°
2026-05-01 13:43 38.07218 21.45325 37064 ft 506 kts 140°
2026-05-01 13:44 38.02393 21.51827 37065 ft 506 kts 140°
2026-05-01 13:44 37.97562 21.58321 37044 ft 505 kts 141°
2026-05-01 13:45 37.92735 21.64782 37065 ft 505 kts 141°
2026-05-01 13:45 37.87903 21.71234 37069 ft 504 kts 141°
2026-05-01 13:46 37.83079 21.77664 37071 ft 504 kts 141°
2026-05-01 13:46 37.78256 21.84084 37068 ft 504 kts 141°
2026-05-01 13:47 37.73424 21.90498 37061 ft 504 kts 141°
2026-05-01 13:47 37.68581 21.96914 37059 ft 504 kts 141°
2026-05-01 13:48 37.63738 22.03314 37072 ft 504 kts 142°
2026-05-01 13:48 37.58890 22.09705 37092 ft 504 kts 142°
2026-05-01 13:49 37.54038 22.16094 37081 ft 504 kts 141°
2026-05-01 13:49 37.49188 22.22477 37096 ft 505 kts 141°
2026-05-01 13:50 37.44329 22.28843 37097 ft 504 kts 141°
2026-05-01 13:50 37.39375 22.35027 37059 ft 495 kts 150°
2026-05-01 13:51 37.34044 22.40387 37084 ft 493 kts 150°
2026-05-01 13:51 37.28688 22.45777 37080 ft 494 kts 150°
2026-05-01 13:52 37.23328 22.51161 37083 ft 494 kts 150°
2026-05-01 13:52 37.17952 22.56538 37088 ft 494 kts 150°
2026-05-01 13:53 37.12575 22.61898 37096 ft 495 kts 150°
2026-05-01 13:53 37.04485 22.69954 36876 ft 496 kts 150°
2026-05-01 13:54 37.01757 22.72662 35614 ft 504 kts 151°
2026-05-01 13:54 36.99012 22.75385 34447 ft 504 kts 151°
2026-05-01 13:54 36.96273 22.78106 33387 ft 500 kts 151°
2026-05-01 13:54 36.93563 22.80802 32321 ft 496 kts 150°
2026-05-01 13:55 36.90884 22.83468 31564 ft 488 kts 150°
2026-05-01 13:55 36.88235 22.86098 31023 ft 485 kts 151°
2026-05-01 13:55 36.85592 22.88708 30459 ft 484 kts 151°
2026-05-01 13:55 36.82953 22.91307 29816 ft 482 kts 150°
2026-05-01 13:56 36.80336 22.93886 29321 ft 477 kts 150°
2026-05-01 13:56 36.77743 22.96441 28782 ft 474 kts 150°
2026-05-01 13:56 36.75170 22.98974 28272 ft 469 kts 150°
2026-05-01 13:56 36.72625 23.01481 27753 ft 464 kts 150°
2026-05-01 13:57 36.70103 23.03963 27228 ft 460 kts 150°
2026-05-01 13:57 36.68441 23.05598 26911 ft 458 kts 150°
2026-05-01 13:57 36.65118 23.08868 26254 ft 453 kts 149°
2026-05-01 13:57 36.62667 23.11280 25888 ft 446 kts 149°
2026-05-01 13:58 36.60233 23.13668 25383 ft 444 kts 149°
2026-05-01 13:58 36.57820 23.16029 24937 ft 441 kts 149°
2026-05-01 13:58 36.55422 23.18372 24426 ft 434 kts 149°
2026-05-01 13:58 36.53062 23.20676 23643 ft 429 kts 149°
2026-05-01 13:59 36.50727 23.22953 22840 ft 422 kts 149°
2026-05-01 13:59 36.48455 23.25173 22309 ft 408 kts 149°
2026-05-01 13:59 36.46266 23.27314 21826 ft 395 kts 149°
2026-05-01 13:59 36.44169 23.29366 21350 ft 382 kts 149°
2026-05-01 14:00 36.42107 23.31378 20887 ft 373 kts 149°
2026-05-01 14:00 36.40065 23.33357 20431 ft 373 kts 149°
2026-05-01 14:00 36.38017 23.35335 19978 ft 373 kts 149°
2026-05-01 14:00 36.35969 23.37314 19501 ft 371 kts 148°
2026-05-01 14:01 36.33965 23.39259 19062 ft 360 kts 148°
2026-05-01 14:01 36.32017 23.41153 18600 ft 351 kts 148°
2026-05-01 14:01 36.30118 23.42999 18121 ft 344 kts 148°
2026-05-01 14:01 36.28236 23.44823 17741 ft 342 kts 148°
2026-05-01 14:02 36.26365 23.46634 17369 ft 340 kts 148°
2026-05-01 14:02 36.24509 23.48431 17028 ft 338 kts 148°
2026-05-01 14:02 36.22663 23.50220 16677 ft 336 kts 148°
2026-05-01 14:02 36.20825 23.52002 16331 ft 335 kts 148°
2026-05-01 14:03 36.18991 23.53775 15984 ft 334 kts 148°
2026-05-01 14:03 36.17160 23.55537 15641 ft 333 kts 148°
2026-05-01 14:03 36.15333 23.57292 15299 ft 332 kts 148°
2026-05-01 14:03 36.13512 23.59043 14954 ft 331 kts 148°
2026-05-01 14:04 36.11695 23.60792 14603 ft 331 kts 148°
2026-05-01 14:04 36.09884 23.62540 14256 ft 330 kts 147°
2026-05-01 14:04 36.08074 23.64285 13914 ft 330 kts 147°
2026-05-01 14:04 36.06877 23.65439 13665 ft 329 kts 147°
2026-05-01 14:05 36.04469 23.67759 13178 ft 327 kts 147°
2026-05-01 14:05 36.02682 23.69479 12823 ft 325 kts 147°
2026-05-01 14:05 36.00906 23.71183 12466 ft 323 kts 147°
2026-05-01 14:05 35.99136 23.72881 12116 ft 321 kts 147°
2026-05-01 14:06 35.97381 23.74567 11755 ft 319 kts 147°
2026-05-01 14:06 35.95626 23.76251 11394 ft 318 kts 147°
2026-05-01 14:06 35.93887 23.77922 11035 ft 316 kts 146°
2026-05-01 14:06 35.92156 23.79583 10656 ft 315 kts 146°
2026-05-01 14:07 35.90420 23.81246 10288 ft 315 kts 146°
2026-05-01 14:07 35.88702 23.82891 9948 ft 312 kts 146°
2026-05-01 14:07 35.86992 23.84529 9605 ft 309 kts 146°
2026-05-01 14:08 35.83614 23.87755 8792 ft 306 kts 146°
2026-05-01 14:08 35.81944 23.89346 8411 ft 303 kts 145°
2026-05-01 14:08 35.80292 23.90918 8116 ft 297 kts 146°
2026-05-01 14:08 35.78691 23.92447 7994 ft 285 kts 146°
2026-05-01 14:09 35.77077 23.93673 7806 ft 268 kts 168°
2026-05-01 14:09 35.75311 23.93699 7564 ft 250 kts 203°
2026-05-01 14:09 35.73963 23.92513 7226 ft 236 kts 234°
2026-05-01 14:09 35.72952 23.90939 6936 ft 233 kts 231°
2026-05-01 14:10 35.71809 23.89537 6621 ft 232 kts 224°
2026-05-01 14:10 35.70563 23.88277 6303 ft 231 kts 220°
2026-05-01 14:10 35.69259 23.87119 5990 ft 231 kts 216°
2026-05-01 14:10 35.67911 23.86056 5681 ft 230 kts 212°
2026-05-01 14:11 35.66518 23.85113 5393 ft 228 kts 202°
2026-05-01 14:11 35.63521 23.85612 4902 ft 229 kts 141°
2026-05-01 14:11 35.62574 23.87162 4642 ft 229 kts 115°
2026-05-01 14:12 35.61918 23.88926 4380 ft 225 kts 114°
2026-05-01 14:12 35.61269 23.90657 4133 ft 221 kts 114°
2026-05-01 14:12 35.60629 23.92353 3888 ft 217 kts 114°
2026-05-01 14:12 35.60020 23.94037 3624 ft 215 kts 110°
2026-05-01 14:13 35.59453 23.95739 3361 ft 214 kts 108°
2026-05-01 14:13 35.59089 23.96858 3179 ft 212 kts 107°
2026-05-01 14:13 35.58363 23.99094 2816 ft 209 kts 108°
2026-05-01 14:13 35.57840 24.00702 2582 ft 197 kts 108°
2026-05-01 14:14 35.57346 24.02204 2333 ft 183 kts 107°
2026-05-01 14:14 35.56884 24.03608 2079 ft 172 kts 107°
2026-05-01 14:14 35.56447 24.04928 1857 ft 162 kts 106°
2026-05-01 14:14 35.56037 24.06163 1668 ft 148 kts 107°
2026-05-01 14:15 35.55660 24.07302 1457 ft 144 kts 107°
2026-05-01 14:15 35.55280 24.08437 1296 ft 144 kts 107°
2026-05-01 14:15 35.54919 24.09555 1152 ft 142 kts 105°
2026-05-01 14:15 35.54552 24.10687 1028 ft 145 kts 104°
2026-05-01 14:16 35.54187 24.11833 825 ft 143 kts 104°
2026-05-01 14:16 35.53818 24.12977 595 ft 145 kts 105°
2026-05-01 14:16 35.53456 24.14084 500 ft 128 kts 108°
2026-05-01 14:16 35.53236 24.14796 492 ft 49 kts 111°
2026-05-01 14:17 35.53143 24.15078 484 ft 17 kts 93°
2026-05-01 14:17 35.53220 24.15146 489 ft 12 kts 22°
2026-05-01 14:17 35.53290 24.15161 489 ft 10 kts 322°
2026-05-01 14:17 35.53319 24.15085 497 ft 9 kts 291°
2026-05-01 14:18 35.53340 24.15016 491 ft 8 kts 290°
2026-05-01 14:18 35.53364 24.14938 492 ft 11 kts 290°
2026-05-01 14:18 35.53389 24.14855 493 ft 10 kts 290°
2026-05-01 14:18 35.53407 24.14805 492 ft 11 kts 295°
2026-05-01 14:19 35.53446 24.14690 496 ft 13 kts 292°
2026-05-01 14:19 35.53480 24.14585 491 ft 13 kts 292°
2026-05-01 14:19 35.53526 24.14449 494 ft 19 kts 292°
2026-05-01 14:19 35.53585 24.14338 496 ft 14 kts 356°
2026-05-01 14:20 35.53675 24.14354 491 ft 13 kts 321°
2026-05-01 14:20 35.53754 24.14135 490 ft 13 kts 291°
2026-05-01 14:20 35.53794 24.14079 498 ft 8 kts
2026-05-01 14:21 35.53848 24.14103 489 ft 7 kts 23°
2026-05-01 14:21 35.53855 24.14107 493 ft 0 kts 22°